Location: Unspecified
(51.0097°N, 0.0000°E)
Time: 04:07:25
(UTC+00:00)

CAS-6 - Visible Passes

Search period start: 04 April 2026 00:00
Search period end: 14 April 2026 00:00
Orbit: 600 x 619 km, 97.8° (Epoch: 29 March)

Date Brightness Start Highest point End Pass type
(mag) Time Alt. Az. Time Alt. Az. Time Alt. Az.
4 Apr ? 21:11:23 44° ENE 21:11:23 44° ENE 21:15:20 10° N visible
4 Apr ? 22:48:19 21° WNW 22:48:19 21° WNW 22:50:49 10° NW visible
5 Apr ? 21:25:22 59° NE 21:25:22 59° NE 21:29:22 10° N visible
5 Apr ? 23:02:17 17° WNW 23:02:17 17° WNW 23:04:20 10° NW visible
6 Apr ? 20:02:24 11° ENE 20:03:50 13° NE 20:05:42 10° NNE visible
6 Apr ? 21:39:20 75° NNE 21:39:20 75° NNE 21:43:21 10° NNW visible
6 Apr ? 23:16:16 13° WNW 23:16:16 13° WNW 23:17:33 10° WNW visible
7 Apr ? 20:16:23 15° ENE 20:17:35 16° ENE 20:20:14 10° NNE visible
7 Apr ? 21:53:19 69° WNW 21:53:19 69° WNW 21:57:17 10° NNW visible
8 Apr ? 20:30:21 19° E 20:31:21 21° ENE 20:34:33 10° NNE visible
8 Apr ? 22:07:17 52° W 22:07:17 52° W 22:11:09 10° NNW visible
9 Apr ? 20:44:20 25° E 20:45:09 27° ENE 20:48:45 10° N visible
9 Apr ? 22:21:16 39° W 22:21:16 39° W 22:24:59 10° NNW visible
10 Apr ? 20:58:18 33° E 20:58:58 35° ENE 21:02:52 10° N visible
10 Apr ? 22:35:14 29° W 22:35:14 29° W 22:38:43 10° NNW visible
11 Apr ? 21:12:17 43° E 21:12:49 46° ENE 21:16:57 10° N visible
11 Apr ? 22:49:13 22° W 22:49:13 22° W 22:52:22 10° NW visible
12 Apr ? 19:51:12 10° ENE 19:51:39 10° NE 19:52:06 10° NE visible
12 Apr ? 21:26:15 58° ESE 21:26:41 62° ENE 21:30:58 10° N visible
12 Apr ? 23:03:11 17° W 23:03:11 17° W 23:05:50 10° NW visible
13 Apr ? 20:03:21 10° E 20:05:22 13° NE 20:07:23 10° NNE visible
13 Apr ? 21:40:13 74° SE 21:40:35 84° ENE 21:44:55 10° NNW visible
13 Apr ? 23:17:09 13° W 23:17:09 13° W 23:19:00 10° WNW visible
